Location: Newark
(50.1751°N, 5.6239°W)
Time: 12:49:35
(UTC+00:00)

Nauka - Pass Details

Date: 22 September 2021
Orbit: 417 x 423 km, 51.6° (Epoch: 26 October)

Event Time Altitude Azimuth Distance (km) Brightness Sun altitude
Rises 18:50:00 0° 239° (WSW) 2,356 ? -5.6°
Reaches altitude 10° 18:52:06 10° 235° (SW) 1,495 ? -5.9°
Maximum altitude 18:55:24 57° 156° (SSE) 497 ? -6.4°
Drops below altitude 10° 18:58:43 10° 77° (ENE) 1,504 ? -7.0°
Enters shadow 18:59:09 - 76° (ENE) 1,679 ? -7.0°
